<?xml version="1.0"?>
<gpx xmlns="http://www.topografix.com/GPX/1/1" xmlns:xsi="http://www.w3.org/2001/XMLSchema-instance" version="1.1" creator="GPX RubyGem 1.0.0 -- http://dougfales.github.io/gpx/" xsi:schemaLocation="http://www.topografix.com/GPX/1/1 http://www.topografix.com/GPX/1/1/gpx.xsd">
  <metadata>
    <name/>
    <time>2026-05-08T05:36:03+00:00</time>
    <bound minlat="90.0" minlon="180.0" maxlat="-90.0" maxlon="-180.0"/>
  </metadata>
  <trk>
    <name/>
    <trkseg>
      <trkpt lat="42.124361" lon="1.807255">
        <time>1970-01-01T00:00:00+00:00</time>
        <ele>1423.0</ele>
      </trkpt>
      <trkpt lat="42.124363" lon="1.80725">
        <time>1970-01-01T00:00:00+00:00</time>
        <ele>1422.0</ele>
      </trkpt>
      <trkpt lat="42.124562" lon="1.807249">
        <time>1970-01-01T00:00:00+00:00</time>
        <ele>1425.0</ele>
      </trkpt>
      <trkpt lat="42.124723" lon="1.807067">
        <time>1970-01-01T00:00:00+00:00</time>
        <ele>1427.0</ele>
      </trkpt>
      <trkpt lat="42.124782" lon="1.806973">
        <time>1970-01-01T00:00:00+00:00</time>
        <ele>1427.0</ele>
      </trkpt>
      <trkpt lat="42.124879" lon="1.806914">
        <time>1970-01-01T00:00:00+00:00</time>
        <ele>1430.0</ele>
      </trkpt>
      <trkpt lat="42.125137" lon="1.806692">
        <time>1970-01-01T00:00:00+00:00</time>
        <ele>1433.0</ele>
      </trkpt>
      <trkpt lat="42.125609" lon="1.806485">
        <time>1970-01-01T00:00:00+00:00</time>
        <ele>1453.0</ele>
      </trkpt>
      <trkpt lat="42.126019" lon="1.806192">
        <time>1970-01-01T00:00:00+00:00</time>
        <ele>1471.0</ele>
      </trkpt>
      <trkpt lat="42.126126" lon="1.805972">
        <time>1970-01-01T00:00:00+00:00</time>
        <ele>1477.0</ele>
      </trkpt>
      <trkpt lat="42.126142" lon="1.805856">
        <time>1970-01-01T00:00:00+00:00</time>
        <ele>1477.0</ele>
      </trkpt>
      <trkpt lat="42.12627" lon="1.805776">
        <time>1970-01-01T00:00:00+00:00</time>
        <ele>1481.0</ele>
      </trkpt>
      <trkpt lat="42.126437" lon="1.805615">
        <time>1970-01-01T00:00:00+00:00</time>
        <ele>1490.0</ele>
      </trkpt>
      <trkpt lat="42.126473" lon="1.805642">
        <time>1970-01-01T00:00:00+00:00</time>
        <ele>1492.0</ele>
      </trkpt>
      <trkpt lat="42.126548" lon="1.805712">
        <time>1970-01-01T00:00:00+00:00</time>
        <ele>1497.0</ele>
      </trkpt>
      <trkpt lat="42.126843" lon="1.806104">
        <time>1970-01-01T00:00:00+00:00</time>
        <ele>1514.0</ele>
      </trkpt>
      <trkpt lat="42.126895" lon="1.806361">
        <time>1970-01-01T00:00:00+00:00</time>
        <ele>1518.0</ele>
      </trkpt>
      <trkpt lat="42.127002" lon="1.806522">
        <time>1970-01-01T00:00:00+00:00</time>
        <ele>1523.0</ele>
      </trkpt>
      <trkpt lat="42.127097" lon="1.806602">
        <time>1970-01-01T00:00:00+00:00</time>
        <ele>1527.0</ele>
      </trkpt>
      <trkpt lat="42.127157" lon="1.806602">
        <time>1970-01-01T00:00:00+00:00</time>
        <ele>1530.0</ele>
      </trkpt>
      <trkpt lat="42.127225" lon="1.806554">
        <time>1970-01-01T00:00:00+00:00</time>
        <ele>1533.0</ele>
      </trkpt>
      <trkpt lat="42.127352" lon="1.806415">
        <time>1970-01-01T00:00:00+00:00</time>
        <ele>1539.0</ele>
      </trkpt>
      <trkpt lat="42.127547" lon="1.806039">
        <time>1970-01-01T00:00:00+00:00</time>
        <ele>1549.0</ele>
      </trkpt>
      <trkpt lat="42.127603" lon="1.805862">
        <time>1970-01-01T00:00:00+00:00</time>
        <ele>1553.0</ele>
      </trkpt>
      <trkpt lat="42.127686" lon="1.805841">
        <time>1970-01-01T00:00:00+00:00</time>
        <ele>1556.0</ele>
      </trkpt>
      <trkpt lat="42.127869" lon="1.805835">
        <time>1970-01-01T00:00:00+00:00</time>
        <ele>1562.0</ele>
      </trkpt>
      <trkpt lat="42.128024" lon="1.805969">
        <time>1970-01-01T00:00:00+00:00</time>
        <ele>1567.0</ele>
      </trkpt>
      <trkpt lat="42.128064" lon="1.805969">
        <time>1970-01-01T00:00:00+00:00</time>
        <ele>1568.0</ele>
      </trkpt>
      <trkpt lat="42.12812" lon="1.805969">
        <time>1970-01-01T00:00:00+00:00</time>
        <ele>1570.0</ele>
      </trkpt>
      <trkpt lat="42.128243" lon="1.80591">
        <time>1970-01-01T00:00:00+00:00</time>
        <ele>1576.0</ele>
      </trkpt>
      <trkpt lat="42.128378" lon="1.805814">
        <time>1970-01-01T00:00:00+00:00</time>
        <ele>1581.0</ele>
      </trkpt>
      <trkpt lat="42.128434" lon="1.805691">
        <time>1970-01-01T00:00:00+00:00</time>
        <ele>1583.0</ele>
      </trkpt>
      <trkpt lat="42.128608" lon="1.805595">
        <time>1970-01-01T00:00:00+00:00</time>
        <ele>1594.0</ele>
      </trkpt>
      <trkpt lat="42.128681" lon="1.805429">
        <time>1970-01-01T00:00:00+00:00</time>
        <ele>1599.0</ele>
      </trkpt>
      <trkpt lat="42.128774" lon="1.805015">
        <time>1970-01-01T00:00:00+00:00</time>
        <ele>1603.0</ele>
      </trkpt>
      <trkpt lat="42.128839" lon="1.804967">
        <time>1970-01-01T00:00:00+00:00</time>
        <ele>1608.0</ele>
      </trkpt>
      <trkpt lat="42.128907" lon="1.805012">
        <time>1970-01-01T00:00:00+00:00</time>
        <ele>1613.0</ele>
      </trkpt>
      <trkpt lat="42.128949" lon="1.805075">
        <time>1970-01-01T00:00:00+00:00</time>
        <ele>1616.0</ele>
      </trkpt>
      <trkpt lat="42.128959" lon="1.805208">
        <time>1970-01-01T00:00:00+00:00</time>
        <ele>1618.0</ele>
      </trkpt>
      <trkpt lat="42.129007" lon="1.805304">
        <time>1970-01-01T00:00:00+00:00</time>
        <ele>1621.0</ele>
      </trkpt>
      <trkpt lat="42.129071" lon="1.805288">
        <time>1970-01-01T00:00:00+00:00</time>
        <ele>1625.0</ele>
      </trkpt>
      <trkpt lat="42.129142" lon="1.805251">
        <time>1970-01-01T00:00:00+00:00</time>
        <ele>1628.0</ele>
      </trkpt>
      <trkpt lat="42.129262" lon="1.805038">
        <time>1970-01-01T00:00:00+00:00</time>
        <ele>1635.0</ele>
      </trkpt>
      <trkpt lat="42.129369" lon="1.805009">
        <time>1970-01-01T00:00:00+00:00</time>
        <ele>1643.0</ele>
      </trkpt>
      <trkpt lat="42.129508" lon="1.804897">
        <time>1970-01-01T00:00:00+00:00</time>
        <ele>1651.0</ele>
      </trkpt>
      <trkpt lat="42.129616" lon="1.804741">
        <time>1970-01-01T00:00:00+00:00</time>
        <ele>1657.0</ele>
      </trkpt>
      <trkpt lat="42.129691" lon="1.804741">
        <time>1970-01-01T00:00:00+00:00</time>
        <ele>1660.0</ele>
      </trkpt>
      <trkpt lat="42.129746" lon="1.804676">
        <time>1970-01-01T00:00:00+00:00</time>
        <ele>1662.0</ele>
      </trkpt>
      <trkpt lat="42.129831" lon="1.804575">
        <time>1970-01-01T00:00:00+00:00</time>
        <ele>1666.0</ele>
      </trkpt>
      <trkpt lat="42.129841" lon="1.804479">
        <time>1970-01-01T00:00:00+00:00</time>
        <ele>1669.0</ele>
      </trkpt>
      <trkpt lat="42.129863" lon="1.804269">
        <time>1970-01-01T00:00:00+00:00</time>
        <ele>1674.0</ele>
      </trkpt>
      <trkpt lat="42.129922" lon="1.804231">
        <time>1970-01-01T00:00:00+00:00</time>
        <ele>1677.0</ele>
      </trkpt>
      <trkpt lat="42.129966" lon="1.804108">
        <time>1970-01-01T00:00:00+00:00</time>
        <ele>1680.0</ele>
      </trkpt>
      <trkpt lat="42.130002" lon="1.804103">
        <time>1970-01-01T00:00:00+00:00</time>
        <ele>1682.0</ele>
      </trkpt>
      <trkpt lat="42.130117" lon="1.803802">
        <time>1970-01-01T00:00:00+00:00</time>
        <ele>1685.0</ele>
      </trkpt>
      <trkpt lat="42.130145" lon="1.803824">
        <time>1970-01-01T00:00:00+00:00</time>
        <ele>1686.0</ele>
      </trkpt>
      <trkpt lat="42.130185" lon="1.803802">
        <time>1970-01-01T00:00:00+00:00</time>
        <ele>1687.0</ele>
      </trkpt>
      <trkpt lat="42.130193" lon="1.803743">
        <time>1970-01-01T00:00:00+00:00</time>
        <ele>1686.0</ele>
      </trkpt>
      <trkpt lat="42.130165" lon="1.803679">
        <time>1970-01-01T00:00:00+00:00</time>
        <ele>1684.0</ele>
      </trkpt>
      <trkpt lat="42.130197" lon="1.803604">
        <time>1970-01-01T00:00:00+00:00</time>
        <ele>1684.0</ele>
      </trkpt>
      <trkpt lat="42.130268" lon="1.803534">
        <time>1970-01-01T00:00:00+00:00</time>
        <ele>1686.0</ele>
      </trkpt>
      <trkpt lat="42.130344" lon="1.803491">
        <time>1970-01-01T00:00:00+00:00</time>
        <ele>1688.0</ele>
      </trkpt>
      <trkpt lat="42.130443" lon="1.803346">
        <time>1970-01-01T00:00:00+00:00</time>
        <ele>1693.0</ele>
      </trkpt>
      <trkpt lat="42.130499" lon="1.803319">
        <time>1970-01-01T00:00:00+00:00</time>
        <ele>1696.0</ele>
      </trkpt>
      <trkpt lat="42.130555" lon="1.803191">
        <time>1970-01-01T00:00:00+00:00</time>
        <ele>1700.0</ele>
      </trkpt>
      <trkpt lat="42.130616" lon="1.803151">
        <time>1970-01-01T00:00:00+00:00</time>
        <ele>1703.0</ele>
      </trkpt>
      <trkpt lat="42.130683" lon="1.802942">
        <time>1970-01-01T00:00:00+00:00</time>
        <ele>1707.0</ele>
      </trkpt>
      <trkpt lat="42.130773" lon="1.802126">
        <time>1970-01-01T00:00:00+00:00</time>
        <ele>1723.0</ele>
      </trkpt>
      <trkpt lat="42.13103" lon="1.801716">
        <time>1970-01-01T00:00:00+00:00</time>
        <ele>1730.0</ele>
      </trkpt>
      <trkpt lat="42.131082" lon="1.801517">
        <time>1970-01-01T00:00:00+00:00</time>
        <ele>1731.0</ele>
      </trkpt>
      <trkpt lat="42.13117" lon="1.801328">
        <time>1970-01-01T00:00:00+00:00</time>
        <ele>1733.0</ele>
      </trkpt>
      <trkpt lat="42.131246" lon="1.801257">
        <time>1970-01-01T00:00:00+00:00</time>
        <ele>1733.0</ele>
      </trkpt>
      <trkpt lat="42.131294" lon="1.801213">
        <time>1970-01-01T00:00:00+00:00</time>
        <ele>1733.0</ele>
      </trkpt>
      <trkpt lat="42.131385" lon="1.801128">
        <time>1970-01-01T00:00:00+00:00</time>
        <ele>1733.0</ele>
      </trkpt>
      <trkpt lat="42.131844" lon="1.800037">
        <time>1970-01-01T00:00:00+00:00</time>
        <ele>1754.0</ele>
      </trkpt>
      <trkpt lat="42.131903" lon="1.800009">
        <time>1970-01-01T00:00:00+00:00</time>
        <ele>1756.0</ele>
      </trkpt>
      <trkpt lat="42.13192" lon="1.79997">
        <time>1970-01-01T00:00:00+00:00</time>
        <ele>1758.0</ele>
      </trkpt>
      <trkpt lat="42.131911" lon="1.799875">
        <time>1970-01-01T00:00:00+00:00</time>
        <ele>1759.0</ele>
      </trkpt>
      <trkpt lat="42.131794" lon="1.799446">
        <time>1970-01-01T00:00:00+00:00</time>
        <ele>1760.0</ele>
      </trkpt>
      <trkpt lat="42.131855" lon="1.79908">
        <time>1970-01-01T00:00:00+00:00</time>
        <ele>1764.0</ele>
      </trkpt>
      <trkpt lat="42.131872" lon="1.798814">
        <time>1970-01-01T00:00:00+00:00</time>
        <ele>1765.0</ele>
      </trkpt>
      <trkpt lat="42.132039" lon="1.798492">
        <time>1970-01-01T00:00:00+00:00</time>
        <ele>1771.0</ele>
      </trkpt>
      <trkpt lat="42.132315" lon="1.797881">
        <time>1970-01-01T00:00:00+00:00</time>
        <ele>1782.0</ele>
      </trkpt>
      <trkpt lat="42.132461" lon="1.797602">
        <time>1970-01-01T00:00:00+00:00</time>
        <ele>1787.0</ele>
      </trkpt>
      <trkpt lat="42.132617" lon="1.79745">
        <time>1970-01-01T00:00:00+00:00</time>
        <ele>1794.0</ele>
      </trkpt>
      <trkpt lat="42.132693" lon="1.797348">
        <time>1970-01-01T00:00:00+00:00</time>
        <ele>1796.0</ele>
      </trkpt>
      <trkpt lat="42.132722" lon="1.797336">
        <time>1970-01-01T00:00:00+00:00</time>
        <ele>1798.0</ele>
      </trkpt>
      <trkpt lat="42.13281" lon="1.796969">
        <time>1970-01-01T00:00:00+00:00</time>
        <ele>1802.0</ele>
      </trkpt>
      <trkpt lat="42.132819" lon="1.796825">
        <time>1970-01-01T00:00:00+00:00</time>
        <ele>1802.0</ele>
      </trkpt>
      <trkpt lat="42.132866" lon="1.796714">
        <time>1970-01-01T00:00:00+00:00</time>
        <ele>1804.0</ele>
      </trkpt>
      <trkpt lat="42.132873" lon="1.796646">
        <time>1970-01-01T00:00:00+00:00</time>
        <ele>1804.0</ele>
      </trkpt>
      <trkpt lat="42.132953" lon="1.796506">
        <time>1970-01-01T00:00:00+00:00</time>
        <ele>1808.0</ele>
      </trkpt>
      <trkpt lat="42.132987" lon="1.796354">
        <time>1970-01-01T00:00:00+00:00</time>
        <ele>1809.0</ele>
      </trkpt>
      <trkpt lat="42.13313" lon="1.795993">
        <time>1970-01-01T00:00:00+00:00</time>
        <ele>1812.0</ele>
      </trkpt>
      <trkpt lat="42.133219" lon="1.795817">
        <time>1970-01-01T00:00:00+00:00</time>
        <ele>1818.0</ele>
      </trkpt>
      <trkpt lat="42.133331" lon="1.79565">
        <time>1970-01-01T00:00:00+00:00</time>
        <ele>1826.0</ele>
      </trkpt>
      <trkpt lat="42.133358" lon="1.795533">
        <time>1970-01-01T00:00:00+00:00</time>
        <ele>1827.0</ele>
      </trkpt>
      <trkpt lat="42.133386" lon="1.795483">
        <time>1970-01-01T00:00:00+00:00</time>
        <ele>1830.0</ele>
      </trkpt>
      <trkpt lat="42.133411" lon="1.79547">
        <time>1970-01-01T00:00:00+00:00</time>
        <ele>1831.0</ele>
      </trkpt>
      <trkpt lat="42.133435" lon="1.795413">
        <time>1970-01-01T00:00:00+00:00</time>
        <ele>1833.0</ele>
      </trkpt>
      <trkpt lat="42.133469" lon="1.795253">
        <time>1970-01-01T00:00:00+00:00</time>
        <ele>1837.0</ele>
      </trkpt>
      <trkpt lat="42.133501" lon="1.795192">
        <time>1970-01-01T00:00:00+00:00</time>
        <ele>1839.0</ele>
      </trkpt>
      <trkpt lat="42.133549" lon="1.795165">
        <time>1970-01-01T00:00:00+00:00</time>
        <ele>1843.0</ele>
      </trkpt>
      <trkpt lat="42.133574" lon="1.795079">
        <time>1970-01-01T00:00:00+00:00</time>
        <ele>1845.0</ele>
      </trkpt>
      <trkpt lat="42.133582" lon="1.794988">
        <time>1970-01-01T00:00:00+00:00</time>
        <ele>1845.0</ele>
      </trkpt>
      <trkpt lat="42.133557" lon="1.794781">
        <time>1970-01-01T00:00:00+00:00</time>
        <ele>1845.0</ele>
      </trkpt>
      <trkpt lat="42.133582" lon="1.794637">
        <time>1970-01-01T00:00:00+00:00</time>
        <ele>1849.0</ele>
      </trkpt>
      <trkpt lat="42.133628" lon="1.794505">
        <time>1970-01-01T00:00:00+00:00</time>
        <ele>1854.0</ele>
      </trkpt>
      <trkpt lat="42.133603" lon="1.794359">
        <time>1970-01-01T00:00:00+00:00</time>
        <ele>1857.0</ele>
      </trkpt>
      <trkpt lat="42.133644" lon="1.794229">
        <time>1970-01-01T00:00:00+00:00</time>
        <ele>1862.0</ele>
      </trkpt>
      <trkpt lat="42.1336" lon="1.793952">
        <time>1970-01-01T00:00:00+00:00</time>
        <ele>1864.0</ele>
      </trkpt>
      <trkpt lat="42.133651" lon="1.793729">
        <time>1970-01-01T00:00:00+00:00</time>
        <ele>1870.0</ele>
      </trkpt>
      <trkpt lat="42.133654" lon="1.793602">
        <time>1970-01-01T00:00:00+00:00</time>
        <ele>1872.0</ele>
      </trkpt>
      <trkpt lat="42.133546" lon="1.792971">
        <time>1970-01-01T00:00:00+00:00</time>
        <ele>1874.0</ele>
      </trkpt>
      <trkpt lat="42.133514" lon="1.792705">
        <time>1970-01-01T00:00:00+00:00</time>
        <ele>1877.0</ele>
      </trkpt>
      <trkpt lat="42.133466" lon="1.792519">
        <time>1970-01-01T00:00:00+00:00</time>
        <ele>1876.0</ele>
      </trkpt>
      <trkpt lat="42.133339" lon="1.792192">
        <time>1970-01-01T00:00:00+00:00</time>
        <ele>1875.0</ele>
      </trkpt>
      <trkpt lat="42.133256" lon="1.791902">
        <time>1970-01-01T00:00:00+00:00</time>
        <ele>1876.0</ele>
      </trkpt>
      <trkpt lat="42.133105" lon="1.791449">
        <time>1970-01-01T00:00:00+00:00</time>
        <ele>1877.0</ele>
      </trkpt>
      <trkpt lat="42.133084" lon="1.791327">
        <time>1970-01-01T00:00:00+00:00</time>
        <ele>1878.0</ele>
      </trkpt>
      <trkpt lat="42.133091" lon="1.791173">
        <time>1970-01-01T00:00:00+00:00</time>
        <ele>1879.0</ele>
      </trkpt>
      <trkpt lat="42.133186" lon="1.790546">
        <time>1970-01-01T00:00:00+00:00</time>
        <ele>1887.0</ele>
      </trkpt>
      <trkpt lat="42.133251" lon="1.790817">
        <time>1970-01-01T00:00:00+00:00</time>
        <ele>1881.0</ele>
      </trkpt>
      <trkpt lat="42.133351" lon="1.791141">
        <time>1970-01-01T00:00:00+00:00</time>
        <ele>1876.0</ele>
      </trkpt>
      <trkpt lat="42.133432" lon="1.791251">
        <time>1970-01-01T00:00:00+00:00</time>
        <ele>1874.0</ele>
      </trkpt>
      <trkpt lat="42.133476" lon="1.791308">
        <time>1970-01-01T00:00:00+00:00</time>
        <ele>1873.0</ele>
      </trkpt>
      <trkpt lat="42.133473" lon="1.791414">
        <time>1970-01-01T00:00:00+00:00</time>
        <ele>1873.0</ele>
      </trkpt>
      <trkpt lat="42.133473" lon="1.791414">
        <time>1970-01-01T00:00:00+00:00</time>
        <ele>1873.0</ele>
      </trkpt>
      <trkpt lat="42.133476" lon="1.791308">
        <time>1970-01-01T00:00:00+00:00</time>
        <ele>1873.0</ele>
      </trkpt>
      <trkpt lat="42.133432" lon="1.791251">
        <time>1970-01-01T00:00:00+00:00</time>
        <ele>1874.0</ele>
      </trkpt>
      <trkpt lat="42.133351" lon="1.791141">
        <time>1970-01-01T00:00:00+00:00</time>
        <ele>1876.0</ele>
      </trkpt>
      <trkpt lat="42.133251" lon="1.790817">
        <time>1970-01-01T00:00:00+00:00</time>
        <ele>1881.0</ele>
      </trkpt>
      <trkpt lat="42.133186" lon="1.790546">
        <time>1970-01-01T00:00:00+00:00</time>
        <ele>1887.0</ele>
      </trkpt>
      <trkpt lat="42.133091" lon="1.791173">
        <time>1970-01-01T00:00:00+00:00</time>
        <ele>1879.0</ele>
      </trkpt>
      <trkpt lat="42.133084" lon="1.791327">
        <time>1970-01-01T00:00:00+00:00</time>
        <ele>1878.0</ele>
      </trkpt>
      <trkpt lat="42.133105" lon="1.791449">
        <time>1970-01-01T00:00:00+00:00</time>
        <ele>1877.0</ele>
      </trkpt>
      <trkpt lat="42.133256" lon="1.791902">
        <time>1970-01-01T00:00:00+00:00</time>
        <ele>1876.0</ele>
      </trkpt>
      <trkpt lat="42.133339" lon="1.792192">
        <time>1970-01-01T00:00:00+00:00</time>
        <ele>1875.0</ele>
      </trkpt>
      <trkpt lat="42.133466" lon="1.792519">
        <time>1970-01-01T00:00:00+00:00</time>
        <ele>1876.0</ele>
      </trkpt>
      <trkpt lat="42.133514" lon="1.792705">
        <time>1970-01-01T00:00:00+00:00</time>
        <ele>1877.0</ele>
      </trkpt>
      <trkpt lat="42.133546" lon="1.792971">
        <time>1970-01-01T00:00:00+00:00</time>
        <ele>1874.0</ele>
      </trkpt>
      <trkpt lat="42.133654" lon="1.793602">
        <time>1970-01-01T00:00:00+00:00</time>
        <ele>1872.0</ele>
      </trkpt>
      <trkpt lat="42.133651" lon="1.793729">
        <time>1970-01-01T00:00:00+00:00</time>
        <ele>1870.0</ele>
      </trkpt>
      <trkpt lat="42.1336" lon="1.793952">
        <time>1970-01-01T00:00:00+00:00</time>
        <ele>1864.0</ele>
      </trkpt>
      <trkpt lat="42.133644" lon="1.794229">
        <time>1970-01-01T00:00:00+00:00</time>
        <ele>1862.0</ele>
      </trkpt>
      <trkpt lat="42.133603" lon="1.794359">
        <time>1970-01-01T00:00:00+00:00</time>
        <ele>1857.0</ele>
      </trkpt>
      <trkpt lat="42.133628" lon="1.794505">
        <time>1970-01-01T00:00:00+00:00</time>
        <ele>1854.0</ele>
      </trkpt>
      <trkpt lat="42.133582" lon="1.794637">
        <time>1970-01-01T00:00:00+00:00</time>
        <ele>1849.0</ele>
      </trkpt>
      <trkpt lat="42.133557" lon="1.794781">
        <time>1970-01-01T00:00:00+00:00</time>
        <ele>1845.0</ele>
      </trkpt>
      <trkpt lat="42.133582" lon="1.794988">
        <time>1970-01-01T00:00:00+00:00</time>
        <ele>1845.0</ele>
      </trkpt>
      <trkpt lat="42.133574" lon="1.795079">
        <time>1970-01-01T00:00:00+00:00</time>
        <ele>1845.0</ele>
      </trkpt>
      <trkpt lat="42.133549" lon="1.795165">
        <time>1970-01-01T00:00:00+00:00</time>
        <ele>1843.0</ele>
      </trkpt>
      <trkpt lat="42.133501" lon="1.795192">
        <time>1970-01-01T00:00:00+00:00</time>
        <ele>1839.0</ele>
      </trkpt>
      <trkpt lat="42.133469" lon="1.795253">
        <time>1970-01-01T00:00:00+00:00</time>
        <ele>1837.0</ele>
      </trkpt>
      <trkpt lat="42.133435" lon="1.795413">
        <time>1970-01-01T00:00:00+00:00</time>
        <ele>1833.0</ele>
      </trkpt>
      <trkpt lat="42.133411" lon="1.79547">
        <time>1970-01-01T00:00:00+00:00</time>
        <ele>1831.0</ele>
      </trkpt>
      <trkpt lat="42.133386" lon="1.795483">
        <time>1970-01-01T00:00:00+00:00</time>
        <ele>1830.0</ele>
      </trkpt>
      <trkpt lat="42.133358" lon="1.795533">
        <time>1970-01-01T00:00:00+00:00</time>
        <ele>1827.0</ele>
      </trkpt>
      <trkpt lat="42.133331" lon="1.79565">
        <time>1970-01-01T00:00:00+00:00</time>
        <ele>1826.0</ele>
      </trkpt>
      <trkpt lat="42.133219" lon="1.795817">
        <time>1970-01-01T00:00:00+00:00</time>
        <ele>1818.0</ele>
      </trkpt>
      <trkpt lat="42.13313" lon="1.795993">
        <time>1970-01-01T00:00:00+00:00</time>
        <ele>1812.0</ele>
      </trkpt>
      <trkpt lat="42.132987" lon="1.796354">
        <time>1970-01-01T00:00:00+00:00</time>
        <ele>1809.0</ele>
      </trkpt>
      <trkpt lat="42.132953" lon="1.796506">
        <time>1970-01-01T00:00:00+00:00</time>
        <ele>1808.0</ele>
      </trkpt>
      <trkpt lat="42.132873" lon="1.796646">
        <time>1970-01-01T00:00:00+00:00</time>
        <ele>1804.0</ele>
      </trkpt>
      <trkpt lat="42.132866" lon="1.796714">
        <time>1970-01-01T00:00:00+00:00</time>
        <ele>1804.0</ele>
      </trkpt>
      <trkpt lat="42.132819" lon="1.796825">
        <time>1970-01-01T00:00:00+00:00</time>
        <ele>1802.0</ele>
      </trkpt>
      <trkpt lat="42.13281" lon="1.796969">
        <time>1970-01-01T00:00:00+00:00</time>
        <ele>1802.0</ele>
      </trkpt>
      <trkpt lat="42.132722" lon="1.797336">
        <time>1970-01-01T00:00:00+00:00</time>
        <ele>1798.0</ele>
      </trkpt>
      <trkpt lat="42.132693" lon="1.797348">
        <time>1970-01-01T00:00:00+00:00</time>
        <ele>1796.0</ele>
      </trkpt>
      <trkpt lat="42.132617" lon="1.79745">
        <time>1970-01-01T00:00:00+00:00</time>
        <ele>1794.0</ele>
      </trkpt>
      <trkpt lat="42.132461" lon="1.797602">
        <time>1970-01-01T00:00:00+00:00</time>
        <ele>1787.0</ele>
      </trkpt>
      <trkpt lat="42.132315" lon="1.797881">
        <time>1970-01-01T00:00:00+00:00</time>
        <ele>1782.0</ele>
      </trkpt>
      <trkpt lat="42.132039" lon="1.798492">
        <time>1970-01-01T00:00:00+00:00</time>
        <ele>1771.0</ele>
      </trkpt>
      <trkpt lat="42.131872" lon="1.798814">
        <time>1970-01-01T00:00:00+00:00</time>
        <ele>1765.0</ele>
      </trkpt>
      <trkpt lat="42.131855" lon="1.79908">
        <time>1970-01-01T00:00:00+00:00</time>
        <ele>1764.0</ele>
      </trkpt>
      <trkpt lat="42.131794" lon="1.799446">
        <time>1970-01-01T00:00:00+00:00</time>
        <ele>1760.0</ele>
      </trkpt>
      <trkpt lat="42.131911" lon="1.799875">
        <time>1970-01-01T00:00:00+00:00</time>
        <ele>1759.0</ele>
      </trkpt>
      <trkpt lat="42.13192" lon="1.79997">
        <time>1970-01-01T00:00:00+00:00</time>
        <ele>1758.0</ele>
      </trkpt>
      <trkpt lat="42.131903" lon="1.800009">
        <time>1970-01-01T00:00:00+00:00</time>
        <ele>1756.0</ele>
      </trkpt>
      <trkpt lat="42.131844" lon="1.800037">
        <time>1970-01-01T00:00:00+00:00</time>
        <ele>1754.0</ele>
      </trkpt>
      <trkpt lat="42.131385" lon="1.801128">
        <time>1970-01-01T00:00:00+00:00</time>
        <ele>1733.0</ele>
      </trkpt>
      <trkpt lat="42.131294" lon="1.801213">
        <time>1970-01-01T00:00:00+00:00</time>
        <ele>1733.0</ele>
      </trkpt>
      <trkpt lat="42.131246" lon="1.801257">
        <time>1970-01-01T00:00:00+00:00</time>
        <ele>1733.0</ele>
      </trkpt>
      <trkpt lat="42.13117" lon="1.801328">
        <time>1970-01-01T00:00:00+00:00</time>
        <ele>1733.0</ele>
      </trkpt>
      <trkpt lat="42.131082" lon="1.801517">
        <time>1970-01-01T00:00:00+00:00</time>
        <ele>1731.0</ele>
      </trkpt>
      <trkpt lat="42.13103" lon="1.801716">
        <time>1970-01-01T00:00:00+00:00</time>
        <ele>1730.0</ele>
      </trkpt>
      <trkpt lat="42.130773" lon="1.802126">
        <time>1970-01-01T00:00:00+00:00</time>
        <ele>1723.0</ele>
      </trkpt>
      <trkpt lat="42.130683" lon="1.802942">
        <time>1970-01-01T00:00:00+00:00</time>
        <ele>1707.0</ele>
      </trkpt>
      <trkpt lat="42.130616" lon="1.803151">
        <time>1970-01-01T00:00:00+00:00</time>
        <ele>1703.0</ele>
      </trkpt>
      <trkpt lat="42.130555" lon="1.803191">
        <time>1970-01-01T00:00:00+00:00</time>
        <ele>1700.0</ele>
      </trkpt>
      <trkpt lat="42.130499" lon="1.803319">
        <time>1970-01-01T00:00:00+00:00</time>
        <ele>1696.0</ele>
      </trkpt>
      <trkpt lat="42.130443" lon="1.803346">
        <time>1970-01-01T00:00:00+00:00</time>
        <ele>1693.0</ele>
      </trkpt>
      <trkpt lat="42.130344" lon="1.803491">
        <time>1970-01-01T00:00:00+00:00</time>
        <ele>1688.0</ele>
      </trkpt>
      <trkpt lat="42.130268" lon="1.803534">
        <time>1970-01-01T00:00:00+00:00</time>
        <ele>1686.0</ele>
      </trkpt>
      <trkpt lat="42.130197" lon="1.803604">
        <time>1970-01-01T00:00:00+00:00</time>
        <ele>1684.0</ele>
      </trkpt>
      <trkpt lat="42.130165" lon="1.803679">
        <time>1970-01-01T00:00:00+00:00</time>
        <ele>1684.0</ele>
      </trkpt>
      <trkpt lat="42.130193" lon="1.803743">
        <time>1970-01-01T00:00:00+00:00</time>
        <ele>1686.0</ele>
      </trkpt>
      <trkpt lat="42.130185" lon="1.803802">
        <time>1970-01-01T00:00:00+00:00</time>
        <ele>1687.0</ele>
      </trkpt>
      <trkpt lat="42.130145" lon="1.803824">
        <time>1970-01-01T00:00:00+00:00</time>
        <ele>1686.0</ele>
      </trkpt>
      <trkpt lat="42.130117" lon="1.803802">
        <time>1970-01-01T00:00:00+00:00</time>
        <ele>1685.0</ele>
      </trkpt>
      <trkpt lat="42.130002" lon="1.804103">
        <time>1970-01-01T00:00:00+00:00</time>
        <ele>1682.0</ele>
      </trkpt>
      <trkpt lat="42.129966" lon="1.804108">
        <time>1970-01-01T00:00:00+00:00</time>
        <ele>1680.0</ele>
      </trkpt>
      <trkpt lat="42.129922" lon="1.804231">
        <time>1970-01-01T00:00:00+00:00</time>
        <ele>1677.0</ele>
      </trkpt>
      <trkpt lat="42.129863" lon="1.804269">
        <time>1970-01-01T00:00:00+00:00</time>
        <ele>1674.0</ele>
      </trkpt>
      <trkpt lat="42.129841" lon="1.804479">
        <time>1970-01-01T00:00:00+00:00</time>
        <ele>1669.0</ele>
      </trkpt>
      <trkpt lat="42.129831" lon="1.804575">
        <time>1970-01-01T00:00:00+00:00</time>
        <ele>1666.0</ele>
      </trkpt>
      <trkpt lat="42.129746" lon="1.804676">
        <time>1970-01-01T00:00:00+00:00</time>
        <ele>1662.0</ele>
      </trkpt>
      <trkpt lat="42.129691" lon="1.804741">
        <time>1970-01-01T00:00:00+00:00</time>
        <ele>1660.0</ele>
      </trkpt>
      <trkpt lat="42.129616" lon="1.804741">
        <time>1970-01-01T00:00:00+00:00</time>
        <ele>1657.0</ele>
      </trkpt>
      <trkpt lat="42.129508" lon="1.804897">
        <time>1970-01-01T00:00:00+00:00</time>
        <ele>1651.0</ele>
      </trkpt>
      <trkpt lat="42.129369" lon="1.805009">
        <time>1970-01-01T00:00:00+00:00</time>
        <ele>1643.0</ele>
      </trkpt>
      <trkpt lat="42.129262" lon="1.805038">
        <time>1970-01-01T00:00:00+00:00</time>
        <ele>1635.0</ele>
      </trkpt>
      <trkpt lat="42.129142" lon="1.805251">
        <time>1970-01-01T00:00:00+00:00</time>
        <ele>1628.0</ele>
      </trkpt>
      <trkpt lat="42.129071" lon="1.805288">
        <time>1970-01-01T00:00:00+00:00</time>
        <ele>1625.0</ele>
      </trkpt>
      <trkpt lat="42.129007" lon="1.805304">
        <time>1970-01-01T00:00:00+00:00</time>
        <ele>1621.0</ele>
      </trkpt>
      <trkpt lat="42.128959" lon="1.805208">
        <time>1970-01-01T00:00:00+00:00</time>
        <ele>1618.0</ele>
      </trkpt>
      <trkpt lat="42.128949" lon="1.805075">
        <time>1970-01-01T00:00:00+00:00</time>
        <ele>1616.0</ele>
      </trkpt>
      <trkpt lat="42.128907" lon="1.805012">
        <time>1970-01-01T00:00:00+00:00</time>
        <ele>1613.0</ele>
      </trkpt>
      <trkpt lat="42.128839" lon="1.804967">
        <time>1970-01-01T00:00:00+00:00</time>
        <ele>1608.0</ele>
      </trkpt>
      <trkpt lat="42.128774" lon="1.805015">
        <time>1970-01-01T00:00:00+00:00</time>
        <ele>1603.0</ele>
      </trkpt>
      <trkpt lat="42.128681" lon="1.805429">
        <time>1970-01-01T00:00:00+00:00</time>
        <ele>1599.0</ele>
      </trkpt>
      <trkpt lat="42.128608" lon="1.805595">
        <time>1970-01-01T00:00:00+00:00</time>
        <ele>1594.0</ele>
      </trkpt>
      <trkpt lat="42.128434" lon="1.805691">
        <time>1970-01-01T00:00:00+00:00</time>
        <ele>1583.0</ele>
      </trkpt>
      <trkpt lat="42.128378" lon="1.805814">
        <time>1970-01-01T00:00:00+00:00</time>
        <ele>1581.0</ele>
      </trkpt>
      <trkpt lat="42.128243" lon="1.80591">
        <time>1970-01-01T00:00:00+00:00</time>
        <ele>1576.0</ele>
      </trkpt>
      <trkpt lat="42.12812" lon="1.805969">
        <time>1970-01-01T00:00:00+00:00</time>
        <ele>1570.0</ele>
      </trkpt>
      <trkpt lat="42.128064" lon="1.805969">
        <time>1970-01-01T00:00:00+00:00</time>
        <ele>1568.0</ele>
      </trkpt>
      <trkpt lat="42.128024" lon="1.805969">
        <time>1970-01-01T00:00:00+00:00</time>
        <ele>1567.0</ele>
      </trkpt>
      <trkpt lat="42.127869" lon="1.805835">
        <time>1970-01-01T00:00:00+00:00</time>
        <ele>1562.0</ele>
      </trkpt>
      <trkpt lat="42.127686" lon="1.805841">
        <time>1970-01-01T00:00:00+00:00</time>
        <ele>1556.0</ele>
      </trkpt>
      <trkpt lat="42.127603" lon="1.805862">
        <time>1970-01-01T00:00:00+00:00</time>
        <ele>1553.0</ele>
      </trkpt>
      <trkpt lat="42.127547" lon="1.806039">
        <time>1970-01-01T00:00:00+00:00</time>
        <ele>1549.0</ele>
      </trkpt>
      <trkpt lat="42.127352" lon="1.806415">
        <time>1970-01-01T00:00:00+00:00</time>
        <ele>1539.0</ele>
      </trkpt>
      <trkpt lat="42.127225" lon="1.806554">
        <time>1970-01-01T00:00:00+00:00</time>
        <ele>1533.0</ele>
      </trkpt>
      <trkpt lat="42.127157" lon="1.806602">
        <time>1970-01-01T00:00:00+00:00</time>
        <ele>1530.0</ele>
      </trkpt>
      <trkpt lat="42.127097" lon="1.806602">
        <time>1970-01-01T00:00:00+00:00</time>
        <ele>1527.0</ele>
      </trkpt>
      <trkpt lat="42.127002" lon="1.806522">
        <time>1970-01-01T00:00:00+00:00</time>
        <ele>1523.0</ele>
      </trkpt>
      <trkpt lat="42.126895" lon="1.806361">
        <time>1970-01-01T00:00:00+00:00</time>
        <ele>1518.0</ele>
      </trkpt>
      <trkpt lat="42.126843" lon="1.806104">
        <time>1970-01-01T00:00:00+00:00</time>
        <ele>1514.0</ele>
      </trkpt>
      <trkpt lat="42.126548" lon="1.805712">
        <time>1970-01-01T00:00:00+00:00</time>
        <ele>1497.0</ele>
      </trkpt>
      <trkpt lat="42.126473" lon="1.805642">
        <time>1970-01-01T00:00:00+00:00</time>
        <ele>1492.0</ele>
      </trkpt>
      <trkpt lat="42.126437" lon="1.805615">
        <time>1970-01-01T00:00:00+00:00</time>
        <ele>1490.0</ele>
      </trkpt>
      <trkpt lat="42.12627" lon="1.805776">
        <time>1970-01-01T00:00:00+00:00</time>
        <ele>1481.0</ele>
      </trkpt>
      <trkpt lat="42.126142" lon="1.805856">
        <time>1970-01-01T00:00:00+00:00</time>
        <ele>1477.0</ele>
      </trkpt>
      <trkpt lat="42.126126" lon="1.805972">
        <time>1970-01-01T00:00:00+00:00</time>
        <ele>1477.0</ele>
      </trkpt>
      <trkpt lat="42.126019" lon="1.806192">
        <time>1970-01-01T00:00:00+00:00</time>
        <ele>1471.0</ele>
      </trkpt>
      <trkpt lat="42.125609" lon="1.806485">
        <time>1970-01-01T00:00:00+00:00</time>
        <ele>1453.0</ele>
      </trkpt>
      <trkpt lat="42.125137" lon="1.806692">
        <time>1970-01-01T00:00:00+00:00</time>
        <ele>1433.0</ele>
      </trkpt>
      <trkpt lat="42.124879" lon="1.806914">
        <time>1970-01-01T00:00:00+00:00</time>
        <ele>1430.0</ele>
      </trkpt>
      <trkpt lat="42.124782" lon="1.806973">
        <time>1970-01-01T00:00:00+00:00</time>
        <ele>1427.0</ele>
      </trkpt>
      <trkpt lat="42.124723" lon="1.807067">
        <time>1970-01-01T00:00:00+00:00</time>
        <ele>1427.0</ele>
      </trkpt>
      <trkpt lat="42.124562" lon="1.807249">
        <time>1970-01-01T00:00:00+00:00</time>
        <ele>1425.0</ele>
      </trkpt>
      <trkpt lat="42.124363" lon="1.80725">
        <time>1970-01-01T00:00:00+00:00</time>
        <ele>1422.0</ele>
      </trkpt>
      <trkpt lat="42.124361" lon="1.807255">
        <time>1970-01-01T00:00:00+00:00</time>
        <ele>1423.0</ele>
      </trkpt>
    </trkseg>
  </trk>
</gpx>
